Pardubice, Czech Republic

11:13 AM CEST on May 25, 2017 (GMT +0200)
Pardubice

Weather History for LKPD - April, 2013

Change the Weather History Date:

Monday, April 29, 2013

  Actual Average Record
Temperature  
Mean Temperature 52 °F -  
Max Temperature 59 °F - - ()
Min Temperature 46 °F - - ()
Degree Days  
Heating Degree Days 12    
Growing Degree Days 2 (Base 50)    
Moisture  
Dew Point 48 °F    
Average Humidity 82    
Maximum Humidity 93    
Minimum Humidity 72    
Precipitation  
Precipitation 0.00 in - - ()
Sea Level Pressure  
Sea Level Pressure 30.03 in    
Wind  
Wind Speed 2 mph ()    
Max Wind Speed 6 mph    
Max Gust Speed -    
Visibility 4.7 miles    
Events      
T = Trace of Precipitation, MM = Missing Value Source: Averaged Metar Reports

Daily Weather History Graph

Daily Weather History Graph

Search for Another Location

Airport or City:

Trip Planner

Search our weather history database for the weather conditions in past years. The results will help you decide how hot, cold, wet, or windy it might be!

Date:

Astronomy

Apr. 29, 2013 Rise Set
Actual Time 5:36 AM CEST 8:12 PM CEST
Civil Twilight 5:00 AM CEST 8:49 PM CEST
Nautical Twilight 4:14 AM CEST 9:35 PM CEST
Astronomical Twilight 3:20 AM CEST 10:30 PM CEST
Moon No Moon Rise 8:27 AM CEST (4/29)
Length of Visible Light 15h 48m
Length of Day
14h 35m
Waning Gibbous, 82% of the Moon is Illuminated
Apr 29
Waning Gibbous
May 2
Last Quarter
May 10
New
May 18
First Quarter
May 25
Full

Hourly Weather History & Observations

Time (CEST) Temp. Dew Point Humidity Pressure Visibility Wind Dir Wind Speed Gust Speed Precip Events Conditions
12:00 AM 48.2 °F 44.6 °F 87% 30.04 in 5.0 mi Calm Calm - N/A   Overcast
1:00 AM 50.0 °F 44.6 °F 82% 30.01 in 5.0 mi East 2.3 mph - N/A   Overcast
2:00 AM 50.0 °F 46.4 °F 87% 30.01 in 5.0 mi Calm Calm - N/A   Overcast
3:00 AM 48.2 °F 46.4 °F 93% 30.01 in 5.0 mi East 3.5 mph - N/A   Overcast
4:00 AM 48.2 °F 44.6 °F 87% 30.01 in 5.0 mi Calm Calm - N/A   Overcast
5:00 AM 48.2 °F 44.6 °F 87% 29.98 in 4.3 mi Calm Calm - N/A   Overcast
6:00 AM 46.4 °F 44.6 °F 93% 29.98 in 3.7 mi East 2.3 mph - N/A   Mostly Cloudy
7:00 AM 48.2 °F 44.6 °F 87% 29.98 in 4.3 mi East 3.5 mph - N/A   Overcast
8:00 AM 48.2 °F 44.6 °F 87% 29.98 in 4.3 mi Variable 1.2 mph - N/A   Overcast
9:00 AM 50.0 °F 46.4 °F 87% 29.98 in 4.3 mi West 3.5 mph - N/A   Overcast
10:00 AM 53.6 °F 48.2 °F 82% 29.98 in 4.3 mi Variable 2.3 mph - N/A   Overcast
10:40 AM 53.6 °F 48.2 °F 82% 29.98 in 4.3 mi West 3.5 mph - N/A   Overcast
11:00 AM 53.6 °F 48.2 °F 82% 30.01 in 4.3 mi Variable 2.3 mph - N/A   Overcast
11:29 AM 53.6 °F 48.2 °F 82% 30.01 in 4.3 mi West 3.5 mph - N/A   Overcast
12:00 PM 55.4 °F 48.2 °F 77% 30.04 in 4.3 mi West 5.8 mph - N/A   Overcast
1:00 PM 55.4 °F 48.2 °F 77% 30.04 in 4.3 mi West 3.5 mph - N/A   Overcast
2:00 PM 57.2 °F 50.0 °F 77% 30.04 in 4.3 mi West 5.8 mph - N/A   Overcast
3:00 PM 57.2 °F 48.2 °F 72% 30.04 in 5.0 mi Variable 2.3 mph - N/A   Overcast
4:00 PM 59.0 °F 50.0 °F 72% 30.04 in 5.0 mi WNW 3.5 mph - N/A   Overcast
5:00 PM 59.0 °F 50.0 °F 72% 30.06 in 5.0 mi West 3.5 mph - N/A   Overcast
6:00 PM 59.0 °F 50.0 °F 72% 30.06 in 6.2 mi NW 3.5 mph - N/A   Overcast
7:00 PM 57.2 °F 50.0 °F 77% 30.06 in 5.0 mi NW 3.5 mph - N/A   Overcast
8:00 PM 57.2 °F 50.0 °F 77% 30.09 in 5.0 mi WNW 3.5 mph - N/A   Unknown
9:00 PM 55.4 °F 50.0 °F 82% 30.09 in 5.0 mi NW 4.6 mph - N/A   Overcast
10:00 PM 55.4 °F 50.0 °F 82% 30.12 in 5.0 mi West 3.5 mph - N/A   Overcast
11:00 PM 53.6 °F 48.2 °F 82% 30.12 in 5.0 mi WNW 3.5 mph - N/A   Mostly Cloudy